Tracking 28356 objects as of 8-Dec-2023
HD Live streaming from Space Station
objects crossing your sky now

STARLINK-3337

Track STARLINK-3337 now!
10-day predictions
STARLINK-3337 is classified as:


NORAD ID: 50826
Int'l Code: 2022-001Z
Perigee: 534.0 km
Apogee: 540.7 km
Inclination: 53.2 °
Period: 95.2 minutes
Semi major axis: 6908 km
RCS: Unknown
Launch date: January 6, 2022
Source: United States (US)
Launch site: AIR FORCE EASTERN TEST RANGE (AFETR)
Your satellite tracking list
Your tracking list is empty




NASA's NSSDC Master Catalog

Two Line Element Set (TLE):
1 50826U 22001Z   23341.11900956  .00020292  00000-0  11833-2 0  9993
2 50826  53.2153 265.8261 0004889 121.9986 238.1483 15.11960970106080
Source of the keplerian elements: AFSPC